"Pseudo-MPEC" for ZTF10Ez

Created 2026 Jul 26 18:35:21 UT using Find_Orb

Click here for an explanation of pseudo-MPECs

 
 Astrometry: 
     ZTF10Ez*0C2026 07 22.35504821 33 15.626-27 46 46.24   ~7NF5 18.47gUNEOCPI41
     ZTF10Ez 0C2026 07 22.35539521 33 16.954-27 46 37.71   ~7NF5 18.47gUNEOCPI41
     ZTF10Ez 0C2026 07 22.39664621 36 09.759-27 28 46.85   ~7NF5 18.00RUNEOCPI41
     ZTF10Ez 0C2026 07 22.39699421 36 11.213-27 28 38.22   ~7NF5 18.00RUNEOCPI41

Station data:
(I41) Palomar Mountain--ZTF  (N33.357336 W116.859780)  US/California.
   Observers B. T. Bolin, Z. T. F. Collaboration. Measurers B. T. Bolin,
   Z.-Y. Lin, F. J. Masci. 1.2-m f/2.4 Schmidt.

Orbital elements:  ZTF10Ez
   Perihelion 2026 Sep 10.355131 +/- 31 TT =  8:31:23.3 (JD 2461293.855131)
Epoch 2026 Jul 22.0 TT = JDT 2461243.5   Earth MOID: 0.0001   Ma: 0.0720
M 335.489950789 +/- 21              (J2000 ecliptic)             AutoNEOCP
n   0.486743824 +/- 0.345           Peri.   69.691680 +/- 53
a   1.600549397 +/- 0.757           Node   300.759172 +/- 70
e   0.50382357 +/- 0.247            Incl.    5.493577 +/- 4.0
P   2.025/739.595d         H 26.94  G  0.15   U 12.0  SR
q 0.794154872 +/- 0.193    Q 2.406943923 +/- 34.6
From 4 observations 2026 July 22 (60.4 min); mean residual 0".39
Residuals in arcseconds: 
260722 I41  .62+  .05+    260722 I41  .25+  .39+    
260722 I41  .62-  .05-    260722 I41  .24-  .39-    

Ephemerides (geocentric):
Date (UTC) HH   RA             Dec           delta  r     elong  mag " sig PA
---- --------  ------------   ------------  ------ ------ -----  --- --------
2026 07 26 19  06 38 18.845   +35 47 33.65  .02496 0.9936  28.3 27??  51d 111
2026 07 26 20  06 39 02.852   +35 47 32.14  .02527 0.9933  28.2 27??  51d 111
2026 07 26 21  06 39 45.774   +35 47 29.64  .02559 0.9930  28.1 27??  51d 111
2026 07 26 22  06 40 27.648   +35 47 26.21  .02591 0.9927  28.0 27??  51d 111
2026 07 26 23  06 41 08.514   +35 47 21.93  .02623 0.9924  27.9 27??  51d 111
2026 07 27 00  06 41 48.405   +35 47 16.85  .02655 0.9921  27.8 27??  51d 111
2026 07 27 01  06 42 27.357   +35 47 11.03  .02687 0.9918  27.7 27??  51d 111
2026 07 27 02  06 43 05.403   +35 47 04.53  .02719 0.9915  27.7 27??  51d 111
2026 07 27 03  06 43 42.572   +35 46 57.38  .02751 0.9912  27.6 27??  51d 111
2026 07 27 04  06 44 18.895   +35 46 49.64  .02783 0.9909  27.5 27??  51d 111
2026 07 27 05  06 44 54.401   +35 46 41.35  .02815 0.9906  27.4 28??  51d 111
2026 07 27 06  06 45 29.115   +35 46 32.55  .02847 0.9903  27.4 28??  51d 111
2026 07 27 07  06 46 03.066   +35 46 23.27  .02879 0.9900  27.3 28??  51d 111
2026 07 27 08  06 46 36.276   +35 46 13.55  .02911 .98970  27.2 28??  51d 111
2026 07 27 09  06 47 08.771   +35 46 03.43  .02943 .98940  27.2 28??  51d 111
2026 07 27 10  06 47 40.572   +35 45 52.92  .02975 .98910  27.1 28??  51d 111
2026 07 27 11  06 48 11.703   +35 45 42.06  .03007 .98880  27.1 28??  51d 111
2026 07 27 12  06 48 42.184   +35 45 30.88  .03039 .98849  27.0 28??  51d 111
2026 07 27 13  06 49 12.034   +35 45 19.39  .03071 .98819  27.0 28??  51d 111
2026 07 27 14  06 49 41.275   +35 45 07.63  .03103 .98789  26.9 28??  51d 111
2026 07 27 15  06 50 09.923   +35 44 55.61  .03135 .98759  26.9 28??  51d 111
2026 07 27 16  06 50 37.997   +35 44 43.35  .03167 .98729  26.8 28??  51d 111
2026 07 27 17  06 51 05.514   +35 44 30.87  .03199 .98699  26.8 28??  51d 111
2026 07 27 18  06 51 32.491   +35 44 18.19  .03231 .98669  26.7 28??  51d 111
2026 07 27 19  06 51 58.943   +35 44 05.33  .03263 .98639  26.7 28??  51d 111
2026 07 27 20  06 52 24.886   +35 43 52.29  .03296 .98609  26.6 28??  51d 111
2026 07 27 21  06 52 50.334   +35 43 39.10  .03328 .98579  26.6 28??  51d 111
2026 07 27 22  06 53 15.301   +35 43 25.76  .03360 .98549  26.6 28??  50d 111
2026 07 27 23  06 53 39.802   +35 43 12.30  .03392 .98519  26.5 28??  50d 111
2026 07 28 00  06 54 03.848   +35 42 58.71  .03424 .98489  26.5 28??  50d 111
2026 07 28 01  06 54 27.454   +35 42 45.01  .03456 .98459  26.4 28??  50d 111
2026 07 28 02  06 54 50.630   +35 42 31.22  .03489 .98429  26.4 28??  50d 111
2026 07 28 03  06 55 13.390   +35 42 17.34  .03521 .98399  26.4 28??  50d 111
2026 07 28 04  06 55 35.743   +35 42 03.37  .03553 .98369  26.3 28??  50d 111
2026 07 28 05  06 55 57.701   +35 41 49.34  .03585 .98339  26.3 28??  50d 111
2026 07 28 06  06 56 19.274   +35 41 35.24  .03617 .98309  26.3 28??  50d 111
2026 07 28 07  06 56 40.474   +35 41 21.08  .03650 .98279  26.3 28??  50d 111
2026 07 28 08  06 57 01.308   +35 41 06.87  .03682 .98249  26.2 28??  50d 111
2026 07 28 09  06 57 21.788   +35 40 52.62  .03714 .98219  26.2 28??  50d 111
2026 07 28 10  06 57 41.921   +35 40 38.33  .03747 .98189  26.2 28??  50d 111
2026 07 28 11  06 58 01.718   +35 40 24.00  .03779 .98159  26.2 28??  50d 111
2026 07 28 12  06 58 21.186   +35 40 09.65  .03811 .98129  26.1 28??  50d 111
2026 07 28 13  06 58 40.335   +35 39 55.28  .03843 .98100  26.1 28??  50d 111
2026 07 28 14  06 58 59.170   +35 39 40.89  .03876 .98070  26.1 28??  50d 111
2026 07 28 15  06 59 17.702   +35 39 26.48  .03908 .98040  26.1 28??  50d 111
2026 07 28 16  06 59 35.937   +35 39 12.07  .03940 .98010  26.1 28??  50d 111
2026 07 28 17  06 59 53.882   +35 38 57.65  .03973 .97980  26.0 28??  50d 111
2026 07 28 18  07 00 11.544   +35 38 43.22  .04005 .97950  26.0 28??  50d 111